IBONHE1 Weather Reports


time (UTC)temp
F
wind
direction
speed
knots
gust
knots
rain 1hr
in
rain 24hr
in
rain mn
in
humidity
%
barometer
mb
20260507161522 59 295 0.9 1.7 0.00 0.00 0.00 60 1065.9
20260507160024 59 283 0.0 2.6 0.00 0.00 0.00 60 1065.9
20260507154522 59 356 0.0 2.6 0.00 0.00 0.00 61 1065.9
20260507153021 60 330 0.0 1.7 0.00 0.00 0.00 61 1065.9
20260507151521 60 311 0.0 2.6 0.00 0.00 0.00 60 1065.9
20260507150022 60 354 0.0 0.9 0.00 0.00 0.00 59 1065.8
20260507144520 61 261 0.0 2.6 0.00 0.00 0.00 58 1065.7
20260507143020 61 344 0.0 3.5 0.00 0.00 0.00 58 1065.7
20260507141518 61 315 0.9 3.5 0.00 0.00 0.00 57 1065.7
20260507140019 62 15 0.9 4.3 0.00 0.00 0.00 55 1065.9
20260507134518 62 93 0.0 0.9 0.00 0.00 0.00 56 1065.9
20260507133018 62 14 0.9 3.5 0.00 0.00 0.00 56 1066.0
20260507131517 62 302 0.0 2.6 0.00 0.00 0.00 54 1065.9
20260507130016 63 39 0.9 4.3 0.00 0.00 0.00 54 1066.0
20260507124516 63 243 0.0 2.6 0.00 0.00 0.00 55 1065.9
20260507123021 62 174 0.0 1.7 0.00 0.00 0.00 54 1065.9
20260507121515 62 264 0.9 3.5 0.00 0.00 0.00 54 1065.8
20260507120014 62 34 0.9 3.5 0.00 0.00 0.00 57 1065.8
20260507114513 62 61 0.9 3.5 0.00 0.00 0.00 55 1065.8
20260507113012 63 229 0.9 4.3 0.00 0.00 0.00 55 1065.9
20260507111516 63 255 0.0 3.5 0.00 0.00 0.00 53 1065.9
20260507110011 63 127 0.0 3.5 0.00 0.00 0.00 55 1065.9
20260507104508 63 268 0.9 3.5 0.00 0.00 0.00 56 1066.0
20260507103007 62 46 0.9 3.5 0.00 0.00 0.00 58 1066.1
20260507101507 62 88 0.9 4.3 0.00 0.00 0.00 61 1066.1
20260507100010 62 229 0.0 3.5 0.00 0.00 0.00 62 1066.1
20260507094603 60 77 0.0 3.5 0.00 0.00 0.00 63 1066.1
20260507093101 59 240 0.9 5.2 0.00 0.00 0.00 65 1066.0
20260507091555 59 252 0.0 5.2 0.00 0.00 0.00 66 1066.1
20260507090057 57 125 0.0 4.3 0.00 0.00 0.00 69 1066.1
20260507084553 56 136 0.0 2.6 0.00 0.00 0.00 71 1066.1
20260507083047 56 311 0.0 2.6 0.00 0.00 0.00 72 1066.0
20260507081545 56 302 0.0 2.6 0.00 0.00 0.00 72 1066.0
20260507080047 55 295 0.0 1.7 0.00 0.00 0.00 74 1065.9
20260507074539 54 273 0.0 2.6 0.00 0.00 0.00 75 1065.7
20260507073040 53 239 0.9 3.5 0.00 0.00 0.00 77 1065.7
20260507071533 52 232 0.0 1.7 0.00 0.00 0.00 81 1065.6
20260507070039 51 142 0.0 2.6 0.00 0.00 0.00 82 1065.5
20260507064528 51 301 0.0 1.7 0.00 0.01 0.00 84 1065.5
20260507063026 51 347 0.0 1.7 0.00 0.01 0.00 84 1065.4
20260507061524 50 293 0.0 2.6 0.00 0.01 0.00 85 1065.2
20260507060023 50 321 0.0 2.6 0.00 0.01 0.00 86 1065.1
20260507054521 49 277 0.0 0.0 0.00 0.01 0.00 87 1065.0
20260507053018 49 245 0.0 0.0 0.00 0.01 0.00 87 1064.9
20260507051518 49 245 0.0 0.0 0.00 0.01 0.00 87 1064.7
20260507050036 49 245 0.0 0.0 0.00 0.01 0.00 87 1064.6
20260507044515 49 245 0.0 0.0 0.00 0.01 0.00 87 1064.4
20260507043014 49 240 0.0 0.0 0.00 0.01 0.00 87 1064.3
20260507041513 48 240 0.0 0.0 0.00 0.01 0.00 88 1064.2
20260507040011 48 240 0.0 0.0 0.00 0.01 0.00 88 1064.0
20260507034509 48 240 0.0 0.0 0.00 0.01 0.00 88 1063.8
20260507033008 48 240 0.0 0.0 0.00 0.01 0.00 88 1063.8
20260507031506 49 240 0.0 0.0 0.00 0.01 0.00 88 1063.8
20260507030006 48 240 0.0 0.0 0.00 0.01 0.00 88 1063.7
20260507024505 48 300 0.0 0.0 0.00 0.01 0.00 88 1063.6
20260507023003 49 300 0.0 0.0 0.00 0.01 0.00 88 1063.6
20260507021502 49 300 0.0 0.0 0.00 0.01 0.00 87 1063.5
20260507020002 49 300 0.0 0.0 0.00 0.01 0.00 87 1063.3
20260507014623 49 300 0.0 0.0 0.00 0.01 0.00 86 1063.2
20260507013101 49 300 0.0 0.0 0.00 0.01 0.00 86 1063.2
20260507011601 49 300 0.0 0.0 0.00 0.01 0.00 85 1063.2
20260507010056 49 300 0.0 0.0 0.00 0.01 0.00 85 1063.2
20260507004556 49 300 0.0 0.0 0.00 0.01 0.00 85 1063.2
20260507003154 49 300 0.0 0.0 0.00 0.01 0.00 84 1063.2
20260507001601 49 300 0.0 0.0 0.00 0.01 0.00 84 1063.1
20260507000116 49 300 0.0 0.0 0.00 0.01 0.00 84 1063.1
20260506234610 49 300 0.0 0.0 0.00 0.02 0.00 84 1063.1
20260506233050 49 300 0.0 0.0 0.00 0.02 0.00 83 1063.0
20260506231547 49 300 0.0 0.0 0.00 0.02 0.00 83 1063.0
20260506230052 50 300 0.0 0.0 0.00 0.02 0.00 82 1062.8
20260506224544 50 300 0.0 0.0 0.00 0.02 0.00 82 1062.6
20260506223040 50 300 0.0 0.0 0.00 0.02 0.00 81 1062.5
20260506221551 50 300 0.0 0.0 0.00 0.02 0.00 80 1062.4
20260506220044 51 300 0.0 0.0 0.00 0.02 0.00 81 1062.4
20260506214537 51 300 0.0 0.0 0.00 0.03 0.02 80 1062.4
20260506213043 51 300 0.0 0.0 0.00 0.03 0.02 79 1062.3
20260506211542 51 301 0.0 0.0 0.00 0.03 0.02 79 1062.2
20260506210043 51 301 0.0 0.0 0.00 0.03 0.02 78 1062.1
20260506204534 51 231 0.0 0.0 0.00 0.03 0.02 78 1062.0
20260506203032 52 231 0.0 0.0 0.00 0.03 0.02 76 1061.8
20260506201535 52 231 0.0 0.0 0.00 0.03 0.02 76 1061.8
20260506200031 52 131 0.0 2.6 0.00 0.03 0.02 75 1061.6
20260506194526 52 186 0.0 4.3 0.00 0.03 0.02 76 1061.6
20260506193038 52 269 0.0 0.9 0.00 0.03 0.02 76 1061.5
20260506191522 52 214 0.0 2.6 0.00 0.03 0.02 76 1061.2
20260506190021 52 240 0.9 5.2 0.00 0.03 0.02 75 1061.0
20260506184520 52 257 0.0 2.6 0.00 0.03 0.02 75 1061.0
20260506183019 53 295 0.9 5.2 0.00 0.03 0.02 73 1060.9
20260506181533 54 271 0.9 4.3 0.00 0.03 0.02 71 1060.5
20260506180014 54 295 0.9 5.2 0.00 0.03 0.02 70 1060.4
20260506174512 55 41 1.7 6.1 0.00 0.03 0.02 68 1060.2
20260506173010 55 224 0.0 5.2 0.00 0.03 0.02 67 1060.0
20260506171514 56 321 1.7 3.5 0.00 0.03 0.02 66 1059.8
20260506170007 56 240 0.9 4.3 0.00 0.03 0.02 63 1059.6
20260506164505 57 89 1.7 5.2 0.00 0.03 0.02 61 1059.5
20260506163001 58 114 0.0 4.3 0.00 0.03 0.02 64 1059.3